Home   Weather   Sarh   Past weeks

Flag for Chad Past Weather in Sarh, Chad — Yesterday and Last 2 Weeks

Now
97 °F

Passing clouds.


Feels Like: 102 °F
Forecast: 76 / 98 °F
Wind: 9 mph from East

Location: Sarh Airport

Current Time: Apr 25, 2017 at 5:41:24 pm

Latest Report: Apr 25, 2017 at 5:00 pm


Visibility: N/A

Pressure: 29.83 "Hg

Humidity: 39%

Dew Point: 68 °F

Location of SarhLocation

Past Weather in Sarh — Graph

°F

Sarh Temperature Yesterday

Maximum temperature yesterday: 95 °F (at 11:00 am)
Minimum temperature yesterday: 75 °F (at 2:00 pm)
Average temperature yesterday: 84 °F

High & Low Weather Summary for the Past Weeks

 TemperatureHumidityPressure
High106 °F (Apr 20, 2:00 pm)94% (Apr 17, 5:00 am)30.04 "Hg (Apr 17, 5:00 am)
Low73 °F (Apr 17, 4:00 am)13% (Apr 20, 2:00 pm)29.65 "Hg (Apr 11, 3:00 pm)
Average89 °F51%29.83 "Hg
* Reported Apr 10 3:00 pm — Apr 25 3:00 pm, Sarh, Weather by CustomWeather, © 2017

Note: Actual official high and low records may vary slightly from our data, if they occured in-between our weather recording intervals... More about our weather records

Advertising

Sarh Weather History for the Previous 24 Hours

Scroll right to see more
 ConditionsComfort  
Time TempWeatherWind HumidityBarometerVisibility
3:00 pm
Tue, Apr 25
99 °FPassing clouds.No wind37%29.80 "HgN/A
2:00 pm97 °FPassing clouds.9 mph34%29.80 "HgN/A
1:00 pm95 °FPassing clouds.9 mph44%29.86 "HgN/A
12:00 pm93 °FPassing clouds.12 mph41%29.89 "HgN/A
11:00 am91 °FPassing clouds.14 mph46%29.95 "HgN/A
10:00 am90 °FSunny.14 mph49%29.95 "Hg10 mi
9:00 am86 °FSunny.16 mph55%29.95 "Hg10 mi
8:00 am82 °FSunny.12 mph66%29.95 "Hg10 mi
7:00 am77 °FSunny.9 mph79%29.92 "Hg10 mi
6:00 am75 °FSunny.No wind83%29.86 "Hg10 mi
5:00 am75 °FClear.No wind83%29.86 "Hg10 mi
10:00 pm
Mon, Apr 24
79 °FClear.No wind89%29.86 "Hg10 mi
9:00 pm79 °FPassing clouds.No wind84%29.86 "HgN/A
8:00 pm79 °FPassing clouds.No wind84%29.83 "HgN/A
7:00 pm79 °FPassing clouds.No wind84%29.80 "HgN/A
6:00 pm77 °FThunderstorms. Passing clouds.No wind83%29.80 "HgN/A
5:00 pm77 °FThunderstorms. Partly sunny.5 mph79%29.83 "HgN/A
Weather by CustomWeather, © 2017

See weather overviewHow to use our weather pages